This is the latest recevied weather packets stored in our database for station/object CQ0XCR-11. If no packets are shown the sender has not sent any weather packets the latest 1 day(s).
| Time | Temp. | Humidity | Pressure | Rain* | Wind** | Luminosity | Snow |
|---|---|---|---|---|---|---|---|
| 1778025688 | -2.78° C | - | 6550.2 hPa | 0 mm | 0.45 m/s, 83° | - | - |
| 1778025564 | -2.78° C | - | 6550.2 hPa | 0 mm | 1.34 m/s, 78° | - | - |
| 1778025484 | -2.78° C | - | 6550.2 hPa | 0 mm | 0.89 m/s, 67° | - | - |
| 1778025440 | -2.78° C | - | 6550.2 hPa | 0 mm | 0.89 m/s, 67° | - | - |
| 1778025351 | -2.78° C | - | 6550.2 hPa | 0 mm | 0.89 m/s, 75° | - | - |
| 1778025316 | -2.78° C | - | 6550.2 hPa | 0 mm | 0.89 m/s, 75° | - | - |
| 1778025193 | -2.78° C | - | 6550.2 hPa | 0 mm | 0.45 m/s, 90° | - | - |
| 1778024944 | -2.78° C | - | 6550.2 hPa | 0 mm | 0 m/s | - | - |
| 1778024820 | -2.78° C | - | 6550.2 hPa | 0 mm | 0.45 m/s, 90° | - | - |
| 1778024753 | -2.78° C | - | 6550.2 hPa | 0 mm | 0 m/s | - | - |
| 1778024696 | -2.78° C | - | 6550.2 hPa | 0 mm | 0 m/s | - | - |
| 1778024572 | -2.78° C | - | 6550.2 hPa | 0 mm | 0.45 m/s, 45° | - | - |
| 1778024448 | -2.78° C | - | 6550.2 hPa | 0 mm | 0 m/s | - | - |
| 1778024377 | -2.78° C | - | 6550.2 hPa | 0 mm | 0.45 m/s, 85° | - | - |
| 1778024324 | -2.78° C | - | 6550.2 hPa | 0 mm | 0.45 m/s, 85° | - | - |
| 1778024200 | -2.78° C | - | 6550.2 hPa | 0 mm | 0 m/s | - | - |
| 1778024076 | -2.78° C | - | 6550.2 hPa | 0 mm | 0 m/s | - | - |
| 1778023828 | -2.78° C | - | 6550.2 hPa | 0 mm | 0.45 m/s, 337° | - | - |
| 1778023704 | -2.78° C | - | 6550.2 hPa | 0 mm | 0.45 m/s, 356° | - | - |
| 1778023580 | -2.78° C | - | 6550.2 hPa | 0 mm | 0.89 m/s, 359° | - | - |
| 1778023456 | -2.78° C | - | 6550.2 hPa | 0 mm | 0.89 m/s, 59° | - | - |
| 1778023382 | -2.78° C | - | 6550.2 hPa | 0 mm | 1.34 m/s, 60° | - | - |
| 1778023332 | -2.78° C | - | 6550.2 hPa | 0 mm | 1.34 m/s, 60° | - | - |
| 1778023208 | -2.78° C | - | 6550.2 hPa | 0 mm | 0 m/s | - | - |
| 1778023084 | -2.78° C | - | 6550.2 hPa | 0 mm | 0.45 m/s, 50° | - | - |
* Rain since midnight (hover to see other rain measurements)
** Current wind speed in m/s (hover to see current wind gust speed)